Location: Aranbee
(34.0885°N, 118.2342°W)
Time: 00:00:15
(UTC+00:00)

S-56A Canister/Altair - Visible Passes

Search period start: 06 December 2020 00:00
Search period end: 16 December 2020 00:00
Orbit: 632 x 2500 km, 38.9° (Epoch: 05 December)

Date Brightness Start Highest point End Pass type
(mag) Time Alt. Az. Time Alt. Az. Time Alt. Az.
06 Dec 9.5 01:48:20 10° WSW 02:02:43 81° NNW 02:10:08 23° ENE visible
06 Dec 9.3 03:57:01 10° W 04:07:34 60° NW 04:07:34 60° NW visible
06 Dec 11.3 06:04:50 10° WNW 06:04:58 10° WNW 06:04:58 10° WNW visible
07 Dec 9.7 01:14:27 10° WSW 01:29:17 85° NNW 01:39:12 14° ENE visible
07 Dec 9.0 03:23:04 10° W 03:35:53 68° N 03:36:38 66° NNE visible
07 Dec 10.9 05:31:10 10° WNW 05:34:03 20° WNW 05:34:03 20° WNW visible
08 Dec 9.2 02:49:05 10° W 03:02:36 69° N 03:05:43 49° ENE visible
08 Dec 10.3 04:57:25 10° WNW 05:03:08 32° WNW 05:03:08 32° WNW visible
09 Dec 9.5 02:15:05 10° W 02:29:13 70° N 02:34:48 33° ENE visible
09 Dec 9.7 04:23:35 10° WNW 04:32:14 50° WNW 04:32:14 50° WNW visible
10 Dec 9.7 01:41:06 10° W 01:55:44 72° N 02:03:56 21° ENE visible
10 Dec 9.1 03:49:43 10° WNW 04:01:21 72° NW 04:01:21 72° NW visible
10 Dec 11.2 05:57:32 10° WNW 05:58:47 14° WNW 05:58:47 14° WNW visible
11 Dec 9.8 01:07:11 10° W 01:22:11 74° N 01:33:05 11° ENE visible
11 Dec 9.0 03:15:48 10° WNW 03:29:12 76° NNE 03:30:31 69° ENE visible
11 Dec 10.7 05:23:45 10° WNW 05:27:57 24° WNW 05:27:57 24° WNW visible
12 Dec 9.3 02:41:52 10° WNW 02:55:52 74° N 02:59:43 46° E visible
12 Dec 10.1 04:49:55 10° WNW 04:57:09 39° W 04:57:09 39° W visible
13 Dec 9.5 02:07:55 10° WNW 02:22:26 73° N 02:28:58 29° E visible
13 Dec 9.5 04:16:04 10° WNW 04:26:25 60° W 04:26:25 60° W visible
14 Dec 9.7 01:34:00 10° W 01:48:54 72° N 01:58:18 17° E visible
14 Dec 9.1 03:42:11 10° WNW 03:55:24 79° SSW 03:55:45 78° S visible
14 Dec 11.1 05:50:46 10° W 05:53:12 16° W 05:53:12 16° W visible
15 Dec 9.9 01:00:06 10° W 01:15:17 72° N 01:26:57 10° E visible
15 Dec 9.2 03:08:19 10° WNW 03:22:12 85° SSW 03:25:09 56° ESE visible
15 Dec 10.6 05:16:40 10° WNW 05:22:37 26° W 05:22:37 26° W visible
